TimePDT,TemperatureF,Dew PointF,Humidity,Sea Level PressureIn,VisibilityMPH,Wind Direction,Wind SpeedMPH,Gust SpeedMPH,PrecipitationIn,Events,Conditions,WindDirDegrees,DateUTC
12:15 AM,53.6,51.8,94,30.08,10.0,South,11.5,-,N/A,,Clear,170,2013-05-13 07:15:00
12:35 AM,53.6,50.0,88,30.08,10.0,South,11.5,17.3,N/A,,Clear,180,2013-05-13 07:35:00
12:55 AM,53.6,50.0,88,30.07,10.0,South,11.5,-,N/A,,Clear,180,2013-05-13 07:55:00
1:15 AM,53.6,50.0,88,30.07,10.0,South,11.5,-,N/A,,Clear,180,2013-05-13 08:15:00
1:35 AM,53.6,50.0,88,30.07,10.0,South,10.4,-,N/A,,Clear,190,2013-05-13 08:35:00
1:55 AM,53.6,50.0,88,30.07,10.0,South,9.2,-,N/A,,Clear,180,2013-05-13 08:55:00
2:15 AM,53.6,50.0,88,30.08,10.0,SSW,10.4,-,N/A,,Clear,200,2013-05-13 09:15:00
2:35 AM,53.6,50.0,88,30.07,10.0,South,8.1,-,N/A,,Clear,190,2013-05-13 09:35:00
2:55 AM,53.6,50.0,88,30.07,10.0,South,6.9,-,N/A,,Partly Cloudy,180,2013-05-13 09:55:00
3:15 AM,53.6,50.0,88,30.07,10.0,South,8.1,-,N/A,,Scattered Clouds,180,2013-05-13 10:15:00
3:35 AM,53.6,51.8,94,30.06,10.0,South,6.9,-,N/A,,Mostly Cloudy,180,2013-05-13 10:35:00
3:55 AM,53.6,51.8,94,30.05,10.0,South,8.1,-,N/A,,Mostly Cloudy,180,2013-05-13 10:55:00
4:15 AM,53.6,51.8,94,30.04,10.0,South,6.9,-,N/A,,Mostly Cloudy,180,2013-05-13 11:15:00
4:35 AM,53.6,51.8,94,30.06,10.0,South,9.2,-,N/A,,Mostly Cloudy,190,2013-05-13 11:35:00
4:55 AM,53.6,51.8,94,30.05,10.0,South,9.2,-,N/A,,Scattered Clouds,170,2013-05-13 11:55:00
5:15 AM,53.6,51.8,94,30.05,10.0,South,11.5,-,N/A,,Mostly Cloudy,180,2013-05-13 12:15:00
5:35 AM,53.6,50.0,88,30.05,10.0,South,9.2,-,N/A,,Mostly Cloudy,180,2013-05-13 12:35:00
5:55 AM,53.6,50.0,88,30.04,10.0,South,6.9,-,N/A,,Mostly Cloudy,170,2013-05-13 12:55:00
6:15 AM,53.6,50.0,88,30.03,10.0,South,4.6,-,N/A,,Scattered Clouds,180,2013-05-13 13:15:00
6:35 AM,53.6,50.0,88,30.04,10.0,South,4.6,-,N/A,,Scattered Clouds,170,2013-05-13 13:35:00
6:55 AM,53.6,50.0,88,30.05,10.0,South,6.9,-,N/A,,Overcast,170,2013-05-13 13:55:00
7:15 AM,53.6,50.0,88,30.05,10.0,South,9.2,-,N/A,,Overcast,190,2013-05-13 14:15:00
7:35 AM,55.4,50.0,82,30.04,10.0,South,9.2,-,N/A,,Overcast,190,2013-05-13 14:35:00
7:55 AM,55.4,50.0,82,30.05,10.0,SSW,11.5,-,N/A,,Overcast,200,2013-05-13 14:55:00
8:15 AM,53.6,51.8,94,30.05,5.0,South,8.1,-,0.02,,Overcast,190,2013-05-13 15:15:00
8:35 AM,53.6,51.8,94,30.04,10.0,South,8.1,-,0.02,,Overcast,170,2013-05-13 15:35:00
8:55 AM,53.6,51.8,94,30.03,8.0,South,10.4,-,0.02,,Overcast,190,2013-05-13 15:55:00
9:15 AM,55.4,51.8,88,30.03,10.0,South,9.2,-,N/A,,Overcast,190,2013-05-13 16:15:00
9:35 AM,55.4,53.6,94,30.02,10.0,SSW,9.2,-,N/A,,Overcast,200,2013-05-13 16:35:00
9:55 AM,55.4,53.6,94,30.02,9.0,SSW,10.4,-,0.03,,Overcast,200,2013-05-13 16:55:00
10:15 AM,57.2,55.4,94,30.02,10.0,South,10.4,16.1,N/A,,Mostly Cloudy,180,2013-05-13 17:15:00
10:35 AM,57.2,55.4,94,30.01,10.0,South,10.4,-,N/A,,Overcast,190,2013-05-13 17:35:00
10:55 AM,57.2,53.6,88,30.01,10.0,SSW,13.8,-,N/A,,Overcast,210,2013-05-13 17:55:00
11:15 AM,60.8,55.4,82,29.99,10.0,South,11.5,-,N/A,,Mostly Cloudy,180,2013-05-13 18:15:00
11:35 AM,60.8,53.6,77,29.98,10.0,SSE,9.2,19.6,0.01,,Partly Cloudy,160,2013-05-13 18:35:00
11:55 AM,59.0,51.8,77,29.98,10.0,South,6.9,-,0.01,,Mostly Cloudy,170,2013-05-13 18:55:00
12:15 PM,57.2,53.6,88,29.98,9.0,SSW,12.7,-,0.05,,Mostly Cloudy,200,2013-05-13 19:15:00
12:35 PM,55.4,51.8,88,29.99,10.0,SSW,10.4,18.4,0.10,,Mostly Cloudy,210,2013-05-13 19:35:00
1:35 PM,55.4,51.8,88,30.00,10.0,SW,18.4,33.4,0.02,,Mostly Cloudy,220,2013-05-13 20:35:00
1:55 PM,59.0,53.6,82,29.99,10.0,SW,18.4,31.1,0.02,,Scattered Clouds,220,2013-05-13 20:55:00
2:15 PM,57.2,50.0,77,30.01,10.0,SW,21.9,28.8,N/A,,Mostly Cloudy,220,2013-05-13 21:15:00
2:35 PM,55.4,50.0,82,30.01,10.0,SSW,26.5,36.8,0.01,,Mostly Cloudy,210,2013-05-13 21:35:00
2:55 PM,57.2,50.0,77,30.03,10.0,SW,26.5,36.8,0.01,,Mostly Cloudy,220,2013-05-13 21:55:00
3:15 PM,59.0,48.2,67,30.02,10.0,SSW,26.5,35.7,N/A,,Scattered Clouds,210,2013-05-13 22:15:00
3:35 PM,55.4,48.2,77,30.03,10.0,SSW,17.3,29.9,N/A,,Mostly Cloudy,210,2013-05-13 22:35:00
3:55 PM,53.6,46.4,77,30.03,8.0,SSW,21.9,36.8,0.02,,Overcast,210,2013-05-13 22:55:00
4:35 PM,53.6,46.4,77,30.07,5.0,SW,20.7,34.5,0.01,,Mostly Cloudy,220,2013-05-13 23:35:00
5:15 PM,51.8,46.4,82,30.06,10.0,South,16.1,24.2,N/A,,Scattered Clouds,190,2013-05-14 00:15:00
5:35 PM,53.6,46.4,77,30.08,10.0,SSW,19.6,26.5,N/A,,Clear,200,2013-05-14 00:35:00
5:55 PM,55.4,44.6,67,30.10,10.0,SSW,24.2,31.1,0.01,,Clear,200,2013-05-14 00:55:00
6:15 PM,55.4,42.8,63,30.10,10.0,SSW,18.4,29.9,N/A,,Clear,210,2013-05-14 01:15:00
6:35 PM,53.6,42.8,67,30.13,10.0,SSW,17.3,21.9,N/A,,Partly Cloudy,210,2013-05-14 01:35:00
6:55 PM,53.6,41.0,62,30.13,10.0,SSW,17.3,25.3,N/A,,Partly Cloudy,200,2013-05-14 01:55:00
7:15 PM,53.6,39.2,58,30.15,10.0,SSW,15.0,20.7,N/A,,Clear,200,2013-05-14 02:15:00
7:35 PM,51.8,39.2,62,30.16,10.0,SSW,21.9,29.9,N/A,,Clear,200,2013-05-14 02:35:00
7:55 PM,51.8,39.2,62,30.15,10.0,SSW,18.4,25.3,N/A,,Clear,200,2013-05-14 02:55:00
8:15 PM,48.2,39.2,71,30.15,10.0,SSW,20.7,27.6,N/A,,Clear,200,2013-05-14 03:15:00
8:35 PM,48.2,41.0,76,30.16,10.0,South,16.1,26.5,N/A,,Clear,190,2013-05-14 03:35:00
8:55 PM,48.2,41.0,76,30.20,10.0,South,10.4,-,N/A,,Clear,190,2013-05-14 03:55:00
9:15 PM,46.4,41.0,81,30.20,10.0,SSW,11.5,18.4,N/A,,Clear,200,2013-05-14 04:15:00
9:35 PM,46.4,41.0,81,30.20,10.0,South,10.4,-,N/A,,Clear,190,2013-05-14 04:35:00
9:55 PM,46.4,41.0,81,30.22,10.0,South,12.7,16.1,N/A,,Clear,180,2013-05-14 04:55:00
10:15 PM,46.4,41.0,81,30.22,10.0,South,10.4,-,N/A,,Clear,180,2013-05-14 05:15:00
10:35 PM,46.4,41.0,81,30.21,10.0,South,12.7,-,N/A,,Clear,180,2013-05-14 05:35:00
10:55 PM,46.4,41.0,81,30.22,10.0,South,11.5,17.3,N/A,,Clear,170,2013-05-14 05:55:00
11:15 PM,44.6,41.0,87,30.21,10.0,South,15.0,-,N/A,,Clear,190,2013-05-14 06:15:00
11:35 PM,44.6,42.8,93,30.21,10.0,South,13.8,-,N/A,,Clear,190,2013-05-14 06:35:00
11:55 PM,44.6,41.0,87,30.21,10.0,SSW,12.7,-,N/A,,Clear,210,2013-05-14 06:55:00